Dewpoint
2 3 5 4 5 7 7 7 9 10 7 11 9 12 12 11 11 11 11 12 12 10 9 3 -3 -4 -2 -3 -2 -10 -11 -9 -10 -12 -12 -14 -17 -19 -21 -20 -19 -19 -18
5 2 4 4 6 7 8 8 9 10 8 9 10 10 10 10 10 11 12 12 12 11 8 4 -2 -4 -3 -3 -4 -11 -11 -11 -12 -13 -14 -17 -18 -20 -20 -20 -18 -18 -18
5 5 6 6 7 8 9 9 9 10 11 7 9 11 11 10 11 11 11 11 11 11 9 5 0 -4 -4 -6 -8 -12 -12 -12 -11 -13 -14 -14 -13 -16 -17 -17 -17 -16 -17
3 6 8 8 8 8 9 9 10 10 11 8 7 10 9 10 10 9 11 10 11 11 11 7 2 -2 -3 -4 -9 -12 -13 -13 -13 -14 -14 -12 -11 -13 -13 -15 -15 -14 -14
1 3 7 8 8 8 9 9 9 11 11 11 10 10 10 9 9 10 10 11 11 11 10 9 3 -0 -5 -5 -10 -13 -14 -13 -13 -13 -13 -12 -10 -11 -10 -12 -12 -12 -13
-4 1 2 6 8 9 10 9 11 11 11 11 10 10 9 10 10 10 10 10 10 11 10 10 3 0 -6 -7 -10 -15 -14 -14 -14 -13 -14 -12 -10 -9 -9 -8 -11 -11 -11
-7 -4 -1 2 3 8 8 10 11 11 9 9 8 10 10 10 9 10 10 10 9 10 9 8 7 -1 -3 -8 -11 -15 -15 -14 -14 -14 -13 -12 -9 -8 -8 -9 -8 -9 -9
-9 -8 -6 -2 1 3 4 6 10 10 8 8 9 10 10 10 10 10 10 10 10 9 8 8 7 0 -2 -7 -11 -16 -15 -14 -14 -14 -14 -13 -10 -10 -10 -10 -10 -8 -7
-10 -9 -7 -4 -1 2 2 3 7 9 7 7 7 7 8 9 9 10 10 10 9 9 8 8 7 4 -1 -6 -11 -13 -15 -14 -14 -14 -14 -13 -11 -11 -10 -10 -9 -9 -9
-10 -10 -9 -6 -3 -0 1 3 2 8 9 8 7 8 8 9 9 9 9 9 8 7 8 7 5 3 0 -3 -8 -12 -14 -14 -14 -14 -14 -13 -12 -11 -10 -10 -10 -10 -9
-11 -11 -10 -9 -7 -1 -1 3 2 7 8 8 6 8 8 9 8 8 8 8 7 7 7 7 5 1 -0 -3 -7 -12 -14 -13 -14 -14 -14 -13 -12 -11 -10 -10 -10 -9 -9
-11 -11 -11 -10 -9 -7 -2 -1 3 3 6 8 8 8 7 9 8 8 8 7 7 7 7 7 3 3 1 -2 -7 -12 -13 -13 -13 -14 -13 -12 -12 -11 -11 -10 -10 -9 -9
-11 -12 -11 -10 -10 -9 -6 -4 1 3 1 8 8 8 9 8 8 8 7 7 7 6 6 6 3 1 -1 -3 -4 -10 -12 -12 -12 -12 -12 -12 -11 -11 -11 -11 -10 -10 -9
-12 -12 -12 -11 -10 -10 -8 -6 -3 1 1 4 7 7 8 8 8 8 7 7 7 6 6 6 3 1 -2 -3 -6 -9 -13 -12 -12 -11 -11 -11 -11 -10 -10 -10 -10 -10 -9
-12 -12 -12 -12 -11 -10 -9 -7 -5 -3 0 2 3 6 6 8 8 8 8 7 7 6 7 6 4 3 -0 -1 -3 -3 -6 -10 -11 -11 -11 -10 -10 -10 -10 -10 -10 -10 -10
-13 -13 -13 -12 -12 -11 -10 -8 -7 -5 -2 1 -1 5 6 7 7 7 8 7 7 7 6 7 6 5 4 4 3 -1 -2 -4 -4 -4 -5 -5 -7 -6 -7 -8 -9 -9 -9
-13 -13 -13 -13 -12 -11 -10 -9 -8 -7 -5 -2 -0 1 4 6 6 7 8 8 7 7 6 6 6 6 7 7 6 1 1 1 1 2 5 6 5 4 5 4 1 -3 -6
-13 -13 -13 -13 -12 -11 -10 -10 -9 -8 -6 -5 -2 -2 2 4 5 6 7 8 8 7 7 7 7 7 7 7 7 6 6 5 6 7 6 6 6 6 5 5 4 4 2
-14 -13 -13 -12 -12 -12 -11 -10 -9 -8 -7 -6 -5 -3 -1 2 3 5 5 7 7 7 7 7 7 7 7 7 7 6 6 6 7 6 6 6 5 5 5 4 4 4 3
-14 -14 -13 -13 -12 -12 -11 -10 -10 -9 -8 -7 -6 -5 -3 -1 2 3 4 5 7 7 7 8 7 7 7 7 7 7 7 6 6 6 6 5 5 4 4 4 4 4 4
-14 -14 -13 -13 -12 -12 -11 -11 -11 -10 -9 -8 -7 -5 -4 -3 -1 2 2 5 6 7 7 7 7 7 7 7 7 7 6 6 5 5 5 5 5 5 4 4 3 3 3
-14 -14 -13 -13 -13 -12 -12 -11 -11 -10 -9 -8 -7 -6 -5 -4 -3 -1 1 2 6 6 6 6 6 7 7 7 6 6 6 6 6 5 5 5 4 4 4 3 3 3 2
-15 -14 -14 -14 -13 -13 -12 -12 -11 -11 -10 -9 -8 -7 -6 -5 -4 -2 -1 2 3 4 5 5 6 6 6 6 6 6 6 6 5 5 5 5 4 4 3 3 2 1 1
-15 -15 -14 -14 -13 -13 -13 -12 -12 -11 -10 -9 -8 -8 -7 -6 -5 -4 -2 -0 2 3 4 4 4 5 5 5 6 6 5 5 5 5 4 4 4 3 3 2 2 1 0
-15 -15 -14 -14 -14 -14 -13 -13 -12 -11 -11 -10 -9 -9 -8 -7 -6 -5 -3 -2 0 2 2 3 3 4 4 5 5 5 5 5 5 4 4 4 3 3 2 1 0 -1 -2
-15 -15 -15 -15 -15 -14 -13 -13 -12 -12 -11 -10 -10 -9 -9 -8 -7 -6 -5 -3 -2 0 1 1 2 2 3 4 3 4 4 4 4 4 3 2 2 1 1 -0 -1 -2 -2
Wind_Speed
43 50 34 30 27 28 33 33 34 34 33 38 41 37 37 35 34 36 49 51 52 43 40 41 41 43 43 42 39 38 37 36 33 30 25 20 19 19 18 16 15 14 12
33 48 25 32 29 28 29 32 33 33 38 41 41 41 36 34 33 39 42 49 47 43 40 40 40 42 46 44 42 41 41 37 34 31 26 17 17 19 19 18 16 15 14
17 35 35 28 28 28 28 30 33 34 34 42 38 39 38 38 39 42 38 43 44 44 44 42 39 43 47 45 45 43 43 41 37 31 18 11 8 21 22 20 18 17 15
18 17 29 26 29 30 31 32 35 37 38 42 46 48 46 45 44 42 45 39 52 46 53 46 42 47 48 47 45 43 42 39 41 36 26 18 13 14 13 23 21 19 18
13 18 16 17 23 25 34 35 38 39 39 39 40 46 45 45 46 46 45 46 51 42 48 48 45 46 47 47 44 44 43 39 39 37 34 22 14 15 9 15 24 22 20
18 17 15 3 10 25 30 36 41 40 41 39 38 41 43 46 47 47 47 50 54 50 51 52 49 43 45 46 44 43 43 40 37 36 33 24 19 17 12 9 19 19 18
25 21 17 14 10 11 14 30 40 42 39 36 33 36 41 43 46 46 47 51 54 57 57 56 52 50 44 46 45 44 43 40 38 36 32 26 18 15 12 9 13 15 14
28 23 20 17 15 10 9 6 34 42 39 34 30 33 38 40 42 43 43 47 49 54 55 57 56 55 49 44 44 44 43 41 39 37 33 31 24 18 16 15 14 12 14
32 30 23 20 16 11 15 16 18 35 37 31 29 28 28 32 36 40 43 44 49 51 61 60 60 57 52 47 46 44 43 41 40 35 35 31 28 24 19 17 14 13 13
30 31 25 20 14 9 12 9 8 28 31 28 27 25 23 25 29 35 40 42 42 49 66 65 65 58 52 49 47 44 42 42 41 38 36 34 31 27 24 20 18 17 15
27 30 28 23 19 9 13 12 11 17 28 28 29 25 24 24 28 34 34 36 40 48 64 62 61 58 55 50 48 44 42 41 40 40 37 35 32 30 27 24 21 20 18
26 27 28 23 20 13 9 11 11 2 19 32 30 26 25 26 27 29 31 39 45 53 63 65 60 56 53 48 45 44 44 42 41 41 38 37 34 32 29 27 25 23 22
26 28 30 29 28 24 16 14 3 9 4 28 33 33 31 28 26 28 31 37 47 55 58 56 57 53 49 47 44 43 43 42 41 42 39 39 37 34 32 31 30 28 25
27 27 31 31 28 26 22 17 9 1 7 14 28 29 33 29 22 23 27 32 44 51 49 56 54 51 48 47 51 51 47 46 44 42 40 37 37 36 35 33 32 30 30
28 28 30 32 28 26 23 19 14 8 2 6 13 24 29 24 22 25 26 31 37 42 45 53 57 57 57 56 52 47 47 46 42 40 40 38 37 35 34 33 33 33 32
27 28 28 29 29 28 27 23 18 13 5 8 8 19 25 26 24 25 24 27 31 35 43 51 56 62 55 59 57 49 46 44 41 40 38 37 36 34 32 33 33 33 32
25 27 29 28 27 26 26 24 20 15 9 2 2 7 20 27 25 25 26 22 27 29 36 40 42 47 50 49 50 50 43 42 41 39 37 35 33 32 31 32 33 34 33
25 27 29 27 25 25 23 20 18 15 12 8 3 2 13 22 28 27 31 26 26 24 27 32 31 34 40 39 42 44 44 42 40 34 32 31 29 29 30 30 31 31 33
24 24 24 22 24 23 21 19 18 16 14 11 7 5 6 16 22 27 29 30 28 29 27 31 32 31 29 24 33 37 37 35 33 30 28 28 28 28 28 29 31 31 30
23 25 23 23 22 23 21 21 20 19 16 14 11 7 2 7 17 24 27 30 31 29 29 31 28 29 32 30 25 24 24 24 26 27 28 30 27 25 27 28 27 27 24
25 23 23 23 23 23 23 22 21 20 17 15 12 8 5 1 7 18 24 30 32 31 31 32 32 32 28 30 32 32 29 28 29 29 27 24 24 25 25 25 24 22 22
25 24 24 23 23 23 23 23 22 20 19 16 14 10 6 4 2 7 18 26 33 33 30 31 31 32 32 32 31 29 28 27 26 26 24 22 22 23 23 23 22 23 22
21 22 23 22 23 22 22 22 22 20 18 15 13 11 8 6 4 3 9 18 26 28 29 30 32 32 31 30 29 29 28 27 26 23 22 22 23 23 23 23 24 24 23
20 21 20 20 22 22 21 20 20 20 18 16 13 12 9 7 5 3 6 10 18 23 26 26 27 30 33 34 35 33 33 32 28 26 25 25 24 25 24 23 23 23 24
19 19 21 21 22 22 21 21 20 18 18 15 13 11 11 8 6 4 4 8 12 17 20 23 25 29 31 33 34 34 33 30 28 27 26 26 26 27 25 25 24 24 22
19 20 19 20 21 21 19 20 19 17 17 16 14 12 11 10 6 5 3 6 10 12 14 19 22 23 23 25 26 26 25 23 24 23 23 24 24 24 25 25 25 24 22
Wind_Direction
247 257 260 223 214 217 214 212 208 209 211 205 213 211 217 214 219 217 209 210 203 197 207 207 204 201 199 198 193 190 188 186 188 180 182 183 189 194 197 194 193 193 195
259 248 244 227 212 211 210 211 210 207 206 211 209 214 215 214 217 214 215 222 210 206 204 213 208 204 202 198 196 194 191 190 188 186 177 177 196 203 206 204 202 204 205
264 238 242 209 208 208 208 210 210 208 202 210 209 210 209 208 209 209 211 220 223 211 209 210 213 208 206 201 201 198 197 192 186 189 179 166 196 205 214 211 210 215 214
306 300 241 199 206 207 211 213 209 209 205 206 208 210 211 209 213 215 215 217 208 224 218 207 206 212 207 204 204 200 201 200 195 188 191 188 193 183 203 213 213 218 221
311 331 244 237 218 218 216 215 209 206 204 204 208 209 214 214 216 212 215 216 212 216 219 209 202 213 211 209 207 203 203 203 205 200 192 194 195 193 190 202 210 217 220
350 355 338 304 177 203 211 211 202 203 203 200 209 209 213 210 210 213 216 214 210 218 213 213 199 209 216 212 209 208 207 205 207 209 204 203 201 195 193 186 201 216 224
6 359 356 359 347 201 225 196 197 192 200 202 207 210 215 220 222 219 216 217 215 213 206 205 203 197 212 217 213 209 209 209 210 211 209 205 201 195 196 197 185 195 206
9 356 2 355 360 352 329 231 188 196 197 194 195 208 214 217 220 220 218 217 216 214 208 206 203 195 203 216 214 212 213 211 212 212 211 212 211 213 216 220 213 199 206
4 357 359 1 356 355 336 324 168 189 187 191 193 194 204 217 220 223 224 223 222 221 208 206 202 201 198 209 214 214 214 214 215 213 214 215 217 220 219 219 217 222 217
2 4 354 357 358 353 329 0 303 169 198 198 201 203 208 218 228 222 222 222 224 220 207 203 199 199 200 206 214 214 215 216 217 217 217 218 220 222 223 226 226 228 232
-0 1 2 359 358 352 341 16 321 151 176 206 205 211 220 222 226 225 225 227 219 217 208 205 201 196 199 203 213 214 216 218 219 221 220 222 224 227 229 231 232 234 237
358 1 3 4 10 356 355 8 12 214 168 185 202 216 221 216 221 229 226 221 219 215 208 205 199 201 202 207 210 212 215 218 219 223 221 225 226 230 230 234 236 240 242
357 2 5 5 4 7 9 6 11 289 247 183 200 209 223 217 220 227 221 223 220 214 210 206 198 201 203 206 212 217 219 222 223 226 226 228 230 233 235 237 241 243 246
358 358 4 6 6 3 360 6 23 8 308 178 185 193 214 217 212 213 216 219 220 218 215 205 200 203 206 209 209 214 219 221 224 226 229 231 234 237 241 243 245 248 250
357 356 357 1 3 2 3 7 8 0 5 201 184 180 197 214 217 212 209 212 217 221 217 207 205 207 209 207 213 217 221 224 226 229 231 232 236 240 244 247 250 252 253
352 350 354 360 2 3 3 3 2 2 37 230 250 166 189 200 217 206 205 208 209 211 213 213 214 214 215 216 213 216 223 223 226 228 230 233 236 239 242 247 248 249 252
346 347 353 357 359 3 3 -0 359 360 349 316 236 174 181 193 202 210 195 197 199 204 205 209 215 219 218 219 218 217 223 227 228 230 230 232 235 239 240 244 246 248 248
345 347 353 355 2 2 2 1 360 359 359 357 319 257 176 182 192 204 202 194 192 192 195 197 200 206 211 217 213 217 222 225 226 229 231 232 235 239 242 243 247 248 252
342 348 349 354 2 2 3 5 4 4 0 348 344 314 168 179 185 194 206 202 199 196 194 194 190 193 194 200 207 211 211 211 213 219 223 230 236 238 243 248 251 251 252
343 349 352 359 359 1 5 10 11 4 357 348 341 332 310 181 183 195 196 202 203 207 203 201 200 206 209 205 209 205 208 214 216 220 226 230 233 236 237 243 249 252 256
341 347 357 357 360 1 5 9 9 7 357 348 340 329 314 246 184 196 205 203 203 207 209 210 207 202 195 200 204 204 209 216 218 222 226 232 234 236 235 238 244 252 255
343 352 353 357 1 4 1 5 5 3 358 354 346 335 317 293 226 204 204 209 205 208 210 213 212 210 205 200 203 210 213 219 224 225 227 231 233 237 240 242 241 244 246
342 348 349 353 360 3 2 359 357 360 0 0 356 343 321 296 298 225 200 207 207 209 210 213 218 214 212 209 210 211 215 220 221 223 228 234 232 232 235 239 240 244 247
345 345 350 351 353 358 359 358 354 354 359 2 5 355 334 311 294 271 204 199 199 202 204 211 212 213 214 206 209 209 211 212 215 218 219 220 225 228 231 233 238 242 247
339 348 350 351 352 352 355 356 353 350 355 359 2 3 351 327 295 281 211 199 193 200 204 209 212 210 207 212 210 211 213 211 212 217 215 219 220 223 223 224 231 235 239
333 341 346 349 351 351 351 349 350 350 348 351 358 359 356 346 324 285 239 206 195 187 195 200 203 206 208 209 208 209 208 211 216 220 220 220 221 219 223 224 226 231 237
Height
1382 1389 1386 1387 1390 1395 1401 1407 1410 1414 1420 1421 1426 1434 1440 1448 1454 1459 1464 1463 1472 1478 1491 1499 1500 1508 1515 1521 1526 1529 1533 1540 1543 1549 1556 1560 1562 1564 1567 1569 1570 1573 1574
1377 1376 1370 1381 1384 1390 1394 1400 1404 1408 1413 1415 1421 1429 1437 1444 1450 1455 1459 1461 1468 1475 1485 1493 1499 1506 1513 1518 1523 1526 1529 1537 1540 1546 1553 1558 1563 1563 1566 1568 1569 1571 1573
1372 1373 1371 1372 1378 1383 1388 1394 1398 1402 1407 1410 1418 1426 1433 1438 1443 1448 1453 1461 1467 1471 1480 1488 1498 1506 1511 1515 1518 1522 1527 1531 1539 1544 1548 1554 1557 1560 1564 1565 1567 1569 1571
1364 1357 1363 1365 1371 1375 1382 1387 1392 1396 1400 1404 1410 1415 1422 1429 1435 1442 1450 1455 1461 1468 1475 1485 1494 1504 1507 1512 1515 1520 1525 1530 1535 1539 1545 1548 1551 1555 1560 1561 1564 1566 1569
1371 1366 1361 1362 1366 1371 1376 1380 1385 1390 1394 1397 1403 1410 1416 1424 1429 1437 1444 1451 1457 1464 1469 1479 1489 1499 1503 1509 1513 1518 1522 1529 1535 1536 1542 1546 1549 1551 1553 1555 1558 1562 1566
1368 1357 1358 1350 1357 1365 1370 1374 1377 1383 1388 1392 1398 1405 1410 1415 1423 1431 1438 1446 1452 1457 1463 1470 1483 1492 1499 1505 1509 1515 1520 1527 1532 1536 1541 1544 1547 1548 1551 1552 1554 1559 1563
1366 1366 1360 1356 1356 1357 1360 1364 1370 1375 1381 1386 1392 1399 1406 1411 1417 1424 1431 1437 1443 1448 1456 1464 1472 1481 1492 1501 1505 1511 1517 1522 1528 1533 1539 1543 1545 1548 1549 1551 1553 1556 1560
1370 1371 1365 1357 1352 1353 1349 1356 1366 1371 1376 1381 1387 1394 1400 1406 1413 1419 1424 1429 1437 1445 1452 1457 1465 1473 1483 1495 1501 1507 1513 1518 1524 1530 1536 1540 1543 1545 1548 1550 1552 1554 1556
1372 1372 1361 1359 1357 1358 1353 1352 1354 1366 1371 1378 1383 1389 1396 1402 1407 1414 1420 1424 1431 1437 1442 1450 1458 1464 1475 1487 1495 1501 1507 1514 1521 1526 1531 1537 1539 1543 1545 1549 1550 1553 1554
1380 1375 1372 1361 1362 1362 1361 1351 1357 1357 1368 1373 1379 1385 1390 1396 1402 1407 1412 1417 1423 1427 1432 1439 1449 1457 1469 1478 1488 1494 1502 1509 1516 1522 1527 1532 1536 1539 1542 1545 1547 1551 1553
1384 1381 1375 1369 1358 1353 1357 1348 1353 1350 1360 1370 1376 1382 1387 1391 1396 1401 1405 1411 1415 1419 1426 1435 1443 1451 1463 1472 1480 1488 1496 1504 1511 1517 1523 1528 1531 1534 1538 1542 1544 1548 1549
1389 1384 1378 1380 1376 1371 1359 1353 1350 1354 1357 1363 1372 1378 1382 1387 1392 1395 1400 1405 1410 1415 1421 1429 1439 1450 1459 1467 1474 1482 1490 1499 1504 1513 1517 1523 1526 1529 1533 1538 1540 1544 1546
1391 1381 1378 1371 1366 1364 1359 1360 1357 1361 1357 1359 1366 1373 1378 1383 1387 1391 1396 1402 1406 1411 1417 1426 1436 1446 1455 1462 1469 1479 1487 1494 1500 1507 1511 1517 1520 1524 1528 1532 1536 1539 1541
1392 1387 1382 1376 1372 1368 1365 1360 1358 1357 1356 1356 1361 1368 1373 1379 1383 1387 1392 1397 1402 1408 1415 1423 1434 1443 1450 1457 1465 1474 1481 1488 1495 1500 1506 1510 1514 1519 1522 1526 1531 1533 1536
1394 1391 1383 1379 1376 1373 1368 1360 1355 1359 1356 1356 1360 1364 1369 1375 1379 1383 1389 1394 1399 1403 1410 1419 1429 1436 1442 1449 1457 1467 1475 1481 1488 1494 1499 1503 1508 1513 1517 1519 1524 1527 1530
1399 1395 1390 1384 1377 1372 1367 1362 1361 1358 1356 1358 1363 1357 1365 1370 1376 1379 1385 1390 1395 1400 1406 1414 1422 1428 1436 1444 1452 1462 1470 1476 1482 1487 1491 1496 1502 1506 1510 1512 1516 1520 1522
1407 1400 1394 1389 1381 1376 1370 1367 1364 1359 1361 1360 1355 1357 1361 1367 1372 1378 1384 1386 1390 1396 1402 1409 1415 1420 1429 1437 1446 1456 1463 1469 1475 1480 1484 1490 1495 1499 1503 1505 1509 1511 1513
1407 1398 1392 1390 1383 1378 1374 1372 1368 1365 1359 1357 1357 1358 1359 1363 1368 1374 1380 1384 1390 1394 1399 1405 1410 1416 1423 1432 1439 1448 1456 1462 1467 1472 1479 1484 1488 1492 1496 1499 1501 1503 1504
1409 1404 1399 1394 1387 1383 1379 1375 1369 1363 1360 1362 1360 1359 1357 1360 1365 1370 1377 1381 1386 1392 1397 1402 1407 1414 1420 1427 1434 1441 1447 1453 1460 1467 1472 1477 1481 1486 1490 1492 1495 1497 1498
1408 1402 1399 1392 1389 1384 1378 1373 1367 1363 1363 1363 1361 1358 1358 1359 1361 1366 1372 1376 1384 1390 1394 1400 1404 1412 1417 1424 1432 1436 1441 1448 1456 1462 1467 1472 1475 1479 1482 1487 1490 1490 1493
1406 1402 1397 1393 1388 1383 1377 1372 1369 1368 1368 1365 1361 1359 1357 1357 1359 1361 1369 1372 1378 1384 1389 1396 1400 1408 1412 1420 1426 1431 1437 1444 1450 1456 1460 1465 1470 1474 1477 1480 1483 1486 1487
1405 1400 1397 1392 1389 1383 1379 1374 1370 1369 1366 1363 1360 1359 1358 1359 1360 1362 1364 1369 1373 1378 1383 1389 1396 1402 1410 1416 1422 1428 1432 1439 1444 1449 1454 1460 1464 1468 1471 1475 1477 1479 1481
1410 1403 1397 1394 1390 1386 1383 1377 1376 1372 1369 1365 1361 1360 1359 1360 1358 1360 1362 1364 1367 1372 1377 1384 1392 1397 1403 1410 1416 1422 1428 1434 1440 1445 1450 1454 1457 1462 1466 1470 1473 1475 1476
1409 1405 1402 1397 1392 1390 1387 1382 1378 1373 1370 1365 1362 1361 1361 1360 1360 1359 1360 1362 1364 1368 1374 1379 1385 1391 1396 1403 1411 1417 1423 1429 1433 1438 1444 1448 1453 1458 1461 1463 1466 1469 1471
1409 1405 1401 1398 1394 1390 1386 1383 1378 1376 1370 1368 1366 1364 1363 1361 1361 1361 1359 1362 1363 1365 1370 1375 1381 1387 1392 1399 1404 1409 1415 1420 1426 1432 1436 1441 1446 1451 1454 1457 1458 1462 1464
1408 1405 1403 1399 1395 1392 1389 1385 1381 1376 1373 1370 1366 1363 1363 1362 1361 1362 1361 1361 1362 1363 1368 1372 1378 1383 1388 1394 1400 1406 1409 1416 1421 1425 1430 1435 1440 1444 1447 1450 1454 1457 1459